Welcome to the New NWS' Forecast!
Most changes are behind the scenes, but click here for differences you might notice.
Latest weather observations around

Troy, Troy Municipal Airport (KTOI)

Using International System of Units (Switch to English Units)
Date/ Time (CDT) Wind (kph) Vis. (km) Weather Sky Cond. Temp (°C) Rel. Humidity Wind Chill (°C) Heat Index (°C) Pressure Precip. (cm)
Air Dwpt 6 hour Altimeter (hPa) Sea level (hPa) 1 hr 3 hr 6 hr
Max Min
Aug 15 21:53 Calm 16.09 Clear CLR 24 23     94%   25 1019.3 1018.7      
Aug 15 20:53 Calm 16.09 Clear CLR 25 23     90%   26 1019 1018.4      
Aug 15 19:53 S 9 16.09 Partly Cloudy SCT047 26 23     85%   26 1018.6 1018      
Aug 15 18:53 SSE 5 16.09 Partly Cloudy SCT048 SCT070 27 23     79%   29 1018.3 1017.8      
Aug 15 18:39 SSW 5 16.09 Mostly Cloudy SCT050 BKN060 BKN070 27 23     77%   30 1018.3        
Aug 15 18:26 SSW 17 16.09 Mostly Cloudy BKN050 BKN060 27 23     77%   30 1018.3        
Aug 15 18:11 S 13 16.09 Thunderstorms SCT050 28 21     67%   30 1017.6        
Aug 15 17:53 SW 8 16.09 Mostly Clear FEW050 29 19     57%   30 1017.6 1017      
Aug 15 17:43 SW 15 16.09 Partly Cloudy SCT055 29 19     55%   31 1017.6        
Aug 15 16:53 SSE 9 16.09 Partly Cloudy SCT049 32 22     56%   36 1017.3 1016.5      
Aug 15 15:53 S 13 16.09 Mostly Cloudy SCT050 BKN060 BKN080 33 22     51%   37 1017.3 1016.7      
Aug 15 14:53 Calm 16.09 Mostly Clear FEW065 33 22     52%   38 1017.6 1017.1      
Aug 15 13:53 S 11 16.09 Mostly Cloudy FEW055 BKN070 33 23     56%   38 1018 1017.5      
Aug 15 12:53 Calm 16.09 Mostly Cloudy BKN039 32 23     59%   36 1019 1018.2      
Aug 15 11:53 SW 5 16.09 Mostly Clear FEW032 31 23     63%   35 1019 1018.3      
Aug 15 10:53 E 8 16.09 Clear CLR 30 23     65%   34 1019.3 1018.7      
Aug 15 09:53 SSE 5 16.09 Clear CLR 28 23     74%   31 1019.3 1018.8      
Aug 15 08:53 Calm 16.09 Clear CLR 26 22     82%   26 1019.3 1018.6      
Aug 15 07:53 Calm 16.09 Clear CLR 23 22     96%   24 1019 1018.5      
Aug 15 06:53 Calm 14.48 Clear CLR 21 21     97%     1018.6 1017.9      
Aug 15 06:25 NNW 8 14.48 Mostly Clear FEW003 21 20     96%     1018.3        
Aug 15 06:18 Calm 3.22 Fog/Mist FEW003 20 20     100%     1018.3        
Aug 15 06:16 Calm 2.01 Fog/Mist FEW003 20 19     96%     1018.3        
Aug 15 06:10 Calm 1.21 Fog/Mist VV003 20 19     96%     1018.3        
Aug 15 06:08 Calm 1.61 Fog/Mist VV002 20 19     96%     1018.3        
Aug 15 06:05 Calm 2.82 Fog/Mist FEW002 20 19     96%     1018        
Aug 15 05:53 Calm 9.66 Fog/Mist FEW003 21 20     96%     1018 1017.5      
Aug 15 05:00 Calm 8.05 Fog/Mist CLR 21 21     97%     1017.6        
Aug 15 04:53 Calm 4.02 Fog/Mist CLR 21 21     100%     1017.6 1017.1      
Aug 15 04:46 Calm 3.22 Fog/Mist CLR 21 21     100%     1017.6        
Aug 15 04:07 Calm 4.83 Fog/Mist FEW002 21 21     97%     1017.6        
Aug 15 04:04 NNW 5 2.82 Fog/Mist FEW002 21 21     97%     1017.6        
Aug 15 04:02 NNW 5 2.01 Fog/Mist SCT002 21 21     97%     1017.6        
Aug 15 03:53 NW 5 1.21 Fog/Mist VV002 21 21     97%     1017.6 1017      
Aug 15 03:15 Calm 0.4 Fog VV002 21 21     97%     1017.6        
Aug 15 02:59 Calm 0.8 Fog OVC001 21 21     100%     1017.3        
Aug 15 02:55 Calm 1.61 Fog/Mist OVC001 21 21     100%     1017.3        
Aug 15 02:53 Calm 2.82 Fog/Mist OVC001 21 21     100%     1017.3 1016.8      
Aug 15 02:50 Calm 3.22 Fog/Mist OVC001 21 21     100%     1017.3        
Aug 15 02:48 Calm 2.41 Fog/Mist OVC001 21 21     100%     1017.3        
Aug 15 02:44 Calm 1.61 Fog/Mist OVC001 21 21     100%     1017.3        
Aug 15 02:33 Calm 0.8 Fog BKN001 21 21     100%     1017.3        
Aug 15 02:17 Calm 0.8 Fog VV002 21 21     100%     1017.3        
Aug 15 02:11 Calm 1.61 Fog/Mist VV002 21 21     100%     1017.3        
Aug 15 01:53 Calm 0.8 Fog VV002 21 21     100%     1017.3 1016.7      
Aug 15 01:43 SE 5 0.8 Fog VV002 21 21     100%     1017.3        
Aug 15 01:40 Calm 1.61 Fog/Mist VV002 21 21     100%     1017.3        
Aug 15 01:37 Calm 2.41 Fog/Mist FEW002 22 21     96%   22 1017.3        
Aug 15 01:35 Calm 1.61 Fog/Mist VV002 22 21     96%   22 1017.3        
Aug 15 01:32 Calm 0.8 Fog VV002 22 21     96%   22 1017.3        
Aug 15 01:20 Calm 1.21 Fog/Mist VV002 22 21     96%   22 1017.6        
Aug 15 01:12 Calm 1.61 Fog/Mist VV002 22 22     100%   23 1017.6        
Aug 15 01:10 Calm 4.02 Fog/Mist SCT002 22 22     100%   23 1017.6        
Aug 15 00:53 Calm 4.83 Fog/Mist CLR 22 22     100%   23 1017.6 1017      
Aug 15 00:24 Calm 9.66 Fog/Mist SCT001 22 22     100%   23 1018        
Aug 15 00:14 Calm 4.83 Fog/Mist BKN002 22 22     97%   23 1018        
Aug 15 00:12 Calm 2.82 Fog/Mist BKN002 22 22     97%   23 1018        
Aug 14 23:58 Calm 2.01 Fog/Mist OVC002 22 22     100%   23 1018        
Aug 14 23:53 Calm 1.21 Fog/Mist VV002 22 22     100%   23 1018 1017.4      
Aug 14 23:45 E 5 0.4 Fog VV002 22 22     100%   23 1018        
Aug 14 23:37 ESE 5 0.8 Fog BKN001 22 22     100%   23 1018        
Aug 14 23:34 ESE 5 1.61 Fog/Mist BKN001 22 22     97%   23 1018        
Aug 14 23:32 ESE 8 2.41 Fog/Mist BKN001 22 22     97%   23 1018        
Aug 14 23:30 SE 5 4.83 Fog/Mist BKN001 22 22     100%   23 1018        
Aug 14 22:58 Calm 4.83 Fog/Mist FEW002 23 22     96%   24 1018        
Aug 14 22:55 Calm 2.82 Fog/Mist FEW002 23 22     96%   24 1018        
Aug 14 22:53 Calm 2.01 Fog/Mist FEW002 23 22     96%   24 1018 1017.5      
Aug 14 22:41 Calm 2.41 Fog/Mist SCT002 23 23     100%   24 1018        
Aug 14 22:36 Calm 1.61 Fog/Mist VV002 23 23     100%   24 1018        
Aug 14 22:10 S 5 0.8 Fog VV002 23 22     96%   24 1018.3        
Aug 14 22:07 S 5 1.61 Fog/Mist VV002 23 22     96%   24 1018.3        
Aug 14 22:05 S 5 2.01 Fog/Mist CLR 23 23     100%   24 1018.3        
Aug 14 22:02 Calm 2.82 Fog/Mist CLR 23 23     100%   24 1018        
Aug 14 21:53 Calm 6.44 Fog/Mist FEW002 23 23     100%   24 1018 1017.5      
Aug 14 21:34 Calm 4.83 Fog/Mist OVC002 23 23     97%   24 1018        
Aug 14 21:23 Calm 2.82 Fog/Mist BKN002 23 23     97%   24 1018        
Aug 14 21:11 SSW 5 4.83 Fog/Mist BKN002 23 23     100%   24 1018        
Aug 14 21:06 S 5 6.44 Fog/Mist SCT003 23 23     100%   24 1017.6        
Aug 14 20:53 S 8 4.83 Fog/Mist CLR 23 22     96%   24 1017.6 1017.1      
Aug 14 20:20 Calm 8.05 Fog/Mist FEW002 23 23     100%   24 1016.9        
Aug 14 19:53 SW 5 14.48 Clear CLR 24 23     96%   25 1016.6 1016.2      
Aug 14 18:53 Calm 14.48 Clear CLR 24 23     96%   25 1016.6 1016.2 0   0
Aug 14 17:53 ENE 5 14.48 Light Rain SCT090 OVC110 24 23     94%   25 1016.6 1016.2 0    
Aug 14 16:53 NNW 5 11.27 Light Rain FEW090 BKN120 24 23     91%   25 1016.6 1015.9 0    
Aug 14 16:42 NNW 8 14.48 Light Rain FEW100 SCT120 25 22     84%   26 1016.6   0    
Aug 14 15:53 N 24 16.09 Light Rain SCT050 BKN100 26 22     82%   26 1017.3 1016.6 0 0  
Aug 14 15:03 W 11 16.09 Mostly Cloudy FEW032 BKN120 28 22     69%   30 1016.6        
Aug 14 14:53 WSW 9 16.09 Partly Cloudy FEW030 SCT038 SCT090 28 23     74%   32 1016.3 1015.6 0    
Aug 14 14:44 W 8 16.09 Light Rain BKN035 BKN048 BKN090 28 23     77%   31 1016.3   0    
Aug 14 14:00 NW 15 16.09 Partly Cloudy FEW050 FEW090 SCT110 29 23     70%   34 1016.6        
Aug 14 13:53 NW 17 16.09 Partly Cloudy FEW050 FEW100 SCT120 30 23     67%   34 1016.9 1016.1      
Aug 14 13:38 WSW 8 16.09 Partly Cloudy FEW100 SCT120 31 21     55%   34 1016.6        
Aug 14 13:23 SW 11 16.09 Clear CLR 32 21     53%   35 1016.9        
Aug 14 13:08 9 16.09 Mostly Clear FEW034 32 21     53%   35 1016.9        
Aug 14 12:53 SW 11 16.09 Mostly Cloudy SCT034 BKN042 32 23     59%   36 1017.3 1016.6      
Aug 14 11:53 SSW 8 16.09 Mostly Clear FEW027 31 24     66%   37 1018 1017.3      
Aug 14 10:53 SSE 8 16.09 Clear CLR 28 23     74%   32 1018 1017.4      
Aug 14 09:53 NW 5 16.09 Clear CLR 28 23     77%   31 1018 1017.4      
Aug 14 07:53 Calm 11.27 Clear CLR 23 22     96%   24 1017.6 1017      
Aug 14 06:53 Calm 6.44 Fog/Mist CLR 22 21     96%   22 1016.9 1016.4      
Aug 14 06:13 Calm 4.83 Fog/Mist FEW002 21 20     96%     1016.9        
Aug 14 06:01 Calm 3.22 Fog/Mist CLR 21 21     100%     1016.6        
Aug 14 05:53 Calm 6.44 Fog/Mist CLR 21 21     97%     1016.6 1016      
Aug 14 04:53 Calm 12.87 Clear CLR 22 21     96%   22 1016.6 1015.9      
Aug 14 03:53 Calm 12.87 Clear CLR 22 21     96%   22 1016.6 1016      
Aug 14 02:53 Calm 12.87 Clear CLR 22 21     93%   22 1016.6 1015.8      
Aug 14 01:53 Calm 16.09 Clear CLR 22 21     93%   23 1016.6 1016      
Aug 14 00:53 E 8 16.09 Clear CLR 22 21     93%   23 1017.3 1016.6      
Aug 13 23:53 WSW 5 16.09 Clear CLR 23 21     90%   23 1016.6 1015.9      
Aug 13 22:53 Calm 16.09 Clear CLR 23 21     87%   24 1017.3 1016.6      
Aug 13 21:53 SSE 5 16.09 Clear CLR 25 23     88%   26 1017.6 1016.9      
Aug 13 21:31 SE 8 16.09 Clear CLR 26 23     87%   26 1017.3        
Aug 13 21:16 S 9 16.09 Partly Cloudy SCT070 26 23     82%   28 1017.3        
Aug 13 20:53 SSE 8 16.09 Mostly Cloudy BKN070 27 23     79%   29 1017.3 1016.6      
Aug 13 20:40 Calm 16.09 Partly Cloudy SCT075 27 22     74%   30 1016.9        
Aug 13 20:14 WNW 8 16.09 Thunderstorms CLR 28 23     74%   31 1016.3        
Aug 13 19:53 WNW 8 16.09 Clear CLR 28 23     74%   31 1015.9 1015.3      
Notice The following observation data may not be complete
Aug 13 19:44   16.09 Thunderstorms CLR          %              
Aug 13 18:53 WNW 5 16.09 Mostly Cloudy SCT060 BKN085 31 23     63%   35 1015.2 1014.5      
Aug 13 17:53 W 5 16.09 Mostly Cloudy FEW050 BKN110 32 22     55%   35 1015.2 1014.5      
Aug 13 16:53 11 16.09 Clear CLR 33 21     49%   37 1015.2 1014.6      
Aug 13 15:53 SW 13 16.09 Partly Cloudy SCT050 SCT090 33 21     47%   36 1015.2 1014.6      
Aug 13 14:53 WSW 13 16.09 Mostly Cloudy BKN050 BKN090 33 22     52%   38 1015.6 1015      
Aug 13 13:53 WNW 8 16.09 Mostly Clear FEW043 FEW100 33 21     49%   37 1016.9 1016.2      
Aug 13 12:53 9 16.09 Clear CLR 32 22     56%   36 1017.6 1017.1      
Aug 13 11:53 SSW 8 16.09 Clear CLR 31 23     61%   35 1018.3 1017.7      
Aug 13 10:53 S 5 16.09 Clear CLR 30 23     67%   34 1018.6 1017.9      
Aug 13 09:53 Calm 16.09 Clear CLR 29 22     67%   32 1018.6 1018.1      
Aug 13 06:53 Calm 8.05 Fog/Mist CLR 21 21     97%     1018 1017.2      
Aug 13 05:53 Calm 8.05 Fog/Mist CLR 21 21     100%     1017.3 1016.7      
Aug 13 01:53 Calm 11.27 Clear CLR 22 22     97%   23 1017.6 1016.9      
Aug 13 00:53 Calm 16.09 Clear CLR 23 22     94%   24 1018 1017.4      
Aug 12 20:53 Calm 16.09 Clear CLR 25 23     88%   26 1017.6 1016.8      
May 15 10:53 NE 13 16.09 Mostly Cloudy SCT030 SCT045 BKN075 27 19     61%   28 1015.6 1015.2      
May 15 08:53 E 9 16.09 Clear CLR 24 19     74%   25 1015.2 1014.6      
May 15 07:53 E 11 16.09 Partly Cloudy SCT120 22 19     84%   23 1015.2 1014.6      
May 14 23:53 Calm 14.48 Clear CLR 18 18     97%     1014.9 1014.3      
May 13 06:53 Calm 9.66 Fog/Mist CLR 17 17     97%     1019.7 1019.2      
Jun 12 06:39 5 16.09 Mostly Clear FEW002 22 22     100%   23 1021        
Jun 12 05:53 Calm 16.09 Mostly Clear FEW011 21 21     100%     1020.7 1020.1      
Jun 11 21:53 SSW 5 14.48 Cloudy OVC100 23 21     87%   24 1021 1020.3 0 0  
Jun 11 20:00 Calm 16.09 Cloudy OVC070 24 23     96%   25 1019.7        
Notice The following observation data may not be complete
Jun 11 07:13   16.09 Partly Cloudy SCT016          %              
Jun 10 12:53 ESE 15 16.09 Mostly Cloudy FEW050 BKN075 31 18     46%   31 1018.6 1018      
Jun 10 04:53 Calm 16.09 Clear CLR 17 17     100%     1016.3 1015.8      
Jun 09 15:53   16.09 Clear CLR 30 16     42%   30 1013.6 1013.1      
Jun 08 12:53 9 16.09 Mostly Clear FEW040 27 17     53%   28 1012.9 1012.1      
Jun 08 09:53 8 16.09 Clear CLR 23 17     68%   23 1012.9 1012.4      
Jun 08 07:53 NE 13 16.09 Clear CLR 20 17     84%     1012.5 1012.1      
Jun 08 00:53 Calm 16.09 Clear CLR 20 19     96%     1010.5 1009.8      
Jun 07 10:53 NE 17 16.09 Mostly Cloudy BKN019 BKN024 BKN032 26 21     74%   28 1007.8 1007.2      
Notice The following observation data may not be complete
Jun 06 03:28   12.87 Partly Cloudy FEW002 SCT015          %              
Jun 05 22:53 Calm 16.09 Cloudy SCT024 BKN050 OVC095 22 22     100%   23 1010.5 1010      
Jun 05 16:53 S 13 16.09 Mostly Clear FEW032 27 22     72%   29 1009.2 1008.5      
Jun 05 15:53 SSE 13 16.09 Mostly Clear FEW018 26 23     82%   28 1009.2 1008.5   0  
Jun 05 14:32 S 8 16.09 Mostly Clear FEW007 24 23     94%   25 1010.5   0